Regional Weather Roundup
Issued by NWS

Home | Current Version | Previous Version | Graphics & Text | Print | Product List | Glossary On
Versions: 1 2 3 4 5 6 7 8 9 10 11 12 13 14 15 16 17 18 19 20 21 22 23 24 25 26 27 28 29 30 31 32 33 34 35 36 37 38 39 40 41 42 43 44 45 46 47 48 49 50
000
ASUS43 KMKX 240600
RWRWI

WISCONSIN REGIONAL WEATHER ROUNDUP
NATIONAL WEATHER SERVICE MILWAUKEE/SULLIVAN WI
100 AM CDT WED MAY 24 2017

NOTE: "FAIR" INDICATES FEW OR NO CLOUDS BELOW 12,000 FEET WITH NO
SIGNIFICANT WEATHER AND/OR OBSTRUCTIONS TO VISIBILITY.

WIZ001-002-006>008-014>016-023>028-240700-
NORTHWEST WISCONSIN

CITY           SKY/WX    TMP DP  RH WIND       PRES   REMARKS
SUPERIOR ARPT  NOT AVBL
ASHLAND        CLOUDY    46  43  89 NE8       29.86F
6HR MIN TEMP:  44; 6HR MAX TEMP:  47;

HAYWARD        CLOUDY    44  41  89 NE5       29.84S
6HR MIN TEMP:  43; 6HR MAX TEMP:  52;

SIREN          CLOUDY    48  43  83 NE8       29.85S
CUMBERLAND     CLEAR     43  41  93 N7        29.82S
RICE LAKE      CLEAR     46  43  87 N9G17     29.82F
CHETEK         MOCLDY    46  44  92 N7        29.80F
LADYSMITH      CLOUDY    46  44  91 N9        29.81F
EAU CLAIRE     NOT AVBL
MENOMONIE      CLOUDY    50  45  83 N8        29.79S
NEW RICHMOND   PTCLDY    46  42  88 N8        29.81F
OSCEOLA        CLEAR     46  46  99 CALM      29.85F
$$

WIZ003>005-009-010-017-018-240700-
NORTH CENTRAL WISCONSIN

CITY           SKY/WX    TMP DP  RH WIND       PRES   REMARKS
MANITOWISH WTR CLOUDY    46  45  99 NE7       29.82S
ARBOR VITAE    CLOUDY    47  44  90 N3        29.80F
WOODRUFF       CLOUDY    47  44  90 N3        29.80F
RHINELANDER    CLOUDY    49  44  83 NE6       29.79F
6HR MIN TEMP:  49; 6HR MAX TEMP:  57;

EAGLE RIVER    CLOUDY    46  42  87 NE8       29.80F
LAND O LAKES   CLOUDY    46  42  88 NE5       29.82F
PHILLIPS       CLOUDY    47  45  91 N8        29.80S
TOMAHAWK       CLOUDY    49  43  81 NE3       29.79F
MEDFORD        DRIZZLE   48  45  91 NE6       29.76F
MERRILL        DRIZZLE   49  49 100 CALM      29.78F
$$

WIZ029-030-035-036-043>047-240700-
CENTRAL WISCONSIN

CITY           SKY/WX    TMP DP  RH WIND       PRES   REMARKS
WAUSAU         CLOUDY    50  48  93 VRB6      29.74F
6HR MIN TEMP:  50; 6HR MAX TEMP:  56; 6HR PCP:  0.09;

MOSINEE        LGT RAIN  48  48 100 N8        29.76F
MARSHFIELD     CLOUDY    50  47  89 N6        29.74F
6HR MIN TEMP:  49; 6HR MAX TEMP:  56; 6HR PCP:  0.01;

STEVENS POINT  RAIN      47  47 100 NE8       29.74F
WAUPACA        DRIZZLE   52  51  96 N3        29.73F
WAUTOMA        CLOUDY    49  48  97 NE3       29.73F
6HR MIN TEMP:  48; 6HR MAX TEMP:  51; 6HR PCP:  0.15;

WISC RAPIDS    CLOUDY    50  48  93 N6        29.74F
6HR MIN TEMP:  50; 6HR MAX TEMP:  54; 6HR PCP:  0.05;

CAMP DOUGLAS   NOT AVBL
$$

WIZ011>013-019>022-031-037>040-048>050-240700-
NORTHEAST WISCONSIN

CITY           SKY/WX    TMP DP  RH WIND       PRES   REMARKS
ANTIGO         DRIZZLE   47  45  92 NE9       29.77F
SHAWANO        DRIZZLE   51  48  90 NE8       29.76S
OCONTO         CLOUDY    48  47  94 N7        29.74F
STURGEON BAY   LGT RAIN  48  47  96 N7        29.73F FOG
6HR MIN TEMP:  48; 6HR MAX TEMP:  51;

GREEN BAY      LGT RAIN  50  50 100 NE15      29.72F FOG
6HR MIN TEMP:  50; 6HR MAX TEMP:  52; 6HR PCP:  0.16;

MANITOWOC      NOT AVBL
APPLETON       CLOUDY    50  48  93 NE13      29.70F
CLINTONVILLE   DRIZZLE   50  48  93 NE12      29.74F
OSHKOSH        LGT RAIN  51  48  89 NE10G20   29.70F
6HR MIN TEMP:  50; 6HR MAX TEMP:  51; 6HR PCP:  0.27;

$$

WIZ032>034-041-042-053>061-240700-
SOUTHWEST WISCONSIN

CITY           SKY/WX    TMP DP  RH WIND       PRES   REMARKS
LA CROSSE      CLOUDY    52  48  86 N7        29.73F
6HR MIN TEMP:  52; 6HR MAX TEMP:  56; 6HR PCP:  0.09;

SPARTA         CLOUDY    48  47  97 NE3       29.75S
VIROQUA        CLOUDY    49  48  97 MISG      29.72F
BOSCOBEL       CLOUDY    54  51  90 NE5       29.70S
6HR MIN TEMP:  53; 6HR MAX TEMP:  61; 6HR PCP:  0.32;

PRAIRIE DU CHI CLOUDY    53  48  83 CALM      29.70S
PLATTEVILLE    CLOUDY    52  52 100 NE6       29.68S
$$

WIZ056-057-062-063-064-067-068-240700-
SOUTH CENTRAL WISCONSIN

CITY           SKY/WX    TMP DP  RH WIND       PRES   REMARKS
REEDSBURG      CLOUDY    49  49 100 NE7       29.72S
BARABOO/DELLS  CLOUDY    49  47  95 NE7       29.72S
LONE ROCK      NOT AVBL
MINERAL POINT  CLOUDY    54  54 100 NE9       29.68S
MADISON        CLOUDY    51  49  92 NE7       29.69F
6HR MIN TEMP:  51; 6HR MAX TEMP:  57; 6HR PCP: TRACE;

MIDDLETON      CLOUDY    52  52 100 NE9       29.70F
WATERTOWN      CLOUDY    49  49 100 N5        29.69F FOG
MONROE         FOG       50  50 100 NE5       29.67F VSB 3/4
JANESVILLE     CLOUDY    52  52 100 NE3       29.67F FOG
$$

WIZ051-052-058>065-066-070>072-240700-
SOUTHEAST WISCONSIN

CITY           SKY/WX    TMP DP  RH WIND       PRES   REMARKS
MILWAUKEE      LGT RAIN  48  47  96 N7        29.69F VSB 1/4
6HR MIN TEMP:  47; 6HR MAX TEMP:  57; 6HR PCP:  0.15;

WAUKESHA       FOG       46  46 100 E5        29.71S VSB 1/4
MILWAUKEE/TIMM FOG       46  43  87 NE3       29.71F VSB 3/4
RACINE         LGT RAIN  47  46  97 N7        29.70F VSB 1/2
6HR MIN TEMP:  47; 6HR MAX TEMP:  55; 6HR PCP:  0.09;

KENOSHA        LGT RAIN  50  49  96 N5        29.68F FOG
6HR MIN TEMP:  50; 6HR MAX TEMP:  57; 6HR PCP:  0.12;

FOND DU LAC    CLOUDY    51  46  83 NE9       29.70F
6HR MIN TEMP:  50; 6HR MAX TEMP:  51; 6HR PCP:  0.16;

SHEBOYGAN      CLOUDY    47  47 100 NE13      29.70F
6HR MIN TEMP:  47; 6HR MAX TEMP:  49; 6HR PCP:  0.05;

WEST BEND      CLOUDY    46  46 100 NE5       29.70F FOG
JUNEAU         CLOUDY    48  47  95 NE6       29.71F
$$

LSZ147-162-240700-
LAKE SUPERIOR

STATION/POSITION TIME  TEMP    WIND        PRES    WAVE
                       AIR SEA DIR/SP/G            HT/PER
                 (UTC) (F)     (DEG/KT/KT) (MB)    (FT/S)
W MID LAKE BUOY  0450   40 37  340/  6/  6 1012.2F   0
DEVILS ISLAND    0500   44      10/  8/  9 1012.3F
SAXON HARBOR     0540   42     350/  4/  4 1011.2F
$$

LMZ867-665-643>646-240700-
LAKE MICHIGAN

STATION/POSITION TIME  TEMP    WIND        PRES    WAVE
                       AIR SEA DIR/SP/G            HT/PER
                 (UTC) (F)     (DEG/KT/KT) (MB)    (FT/S)
CHAMBERS ISLAND  0540   47     360/ 15/ 19 1007.1F
N MID LAKE BUOY  0450   43 39   50/  8/  8 1009.0F   0
NORTHPORT PIER   0540   47     360/  9/ 12 1007.5F
KEWAUNEE LAKESHO 0530   48      30/  9/ 14 1006.1F
SHEBOYGAN LAKESH 0500   45      40/ 13/ 15 1006.3F
PORT WASHINGTON  0540   47      10/  4/  7 1006.8F
ATWATER BUOY     0409   45      10/ 14/ 16 1006.4F
MILWAUKEE LAKESH 0530   45     360/  6/  8   N/A
S MID LAKE BUOY  0450   48 45   30/  6/  8 1005.3F   0
KENOSHA   LAKESH 0500   49      20/  6/  7 1005.8
$$

TC  - TEMPERATURE IN CELSIUS
VSB - VISIBILITY IN STATUTE MILES
WCI - WIND CHILL INDEX
HX  - HEAT INDEX





USA.gov is the U.S. government's official web portal to all federal, state and local government web resources and services.